RH
39 36 32 30 28 27 26 26 25 25 24 24 24 24 24 24 23 24 25 28 29 34 40 42 42 42 40 38 39 40 41 40 37 35 35 36 40 43 39 35 33 32 27 24 23 22 23 23 26 28 29 29 28 28 27 27 27 30 32 32 32 32 31 29 27 27 27 27 30 33 35 36 38 40 40 40 40 40 40 41 41 40 35 29 28 29 26 21 20 18 17 19 20 21 23 24 22
38 36 34 32 30 28 27 26 27 27 26 26 26 24 24 23 23 24 24 25 29 35 41 43 43 44 41 39 41 42 43 43 40 39 40 40 43 43 38 35 33 30 27 25 23 22 22 23 25 27 29 29 28 28 28 27 28 30 32 32 33 33 31 30 28 29 28 28 30 32 34 37 38 39 38 37 38 38 39 41 41 35 28 28 32 35 32 22 18 17 17 18 20 22 23 22 22
37 36 34 33 31 29 28 27 28 28 28 28 27 24 23 22 22 23 23 23 26 33 40 42 42 44 43 42 43 42 44 47 44 42 44 45 47 43 35 35 32 28 26 25 23 22 22 22 24 27 28 29 28 28 28 27 29 31 32 32 34 34 31 31 31 31 30 29 30 32 34 37 38 38 36 35 36 37 38 40 36 29 26 29 30 32 33 22 16 17 17 19 21 22 23 23 24
34 35 34 33 32 31 31 30 29 29 29 30 27 25 24 23 23 22 22 22 22 27 34 38 40 44 43 43 46 43 47 50 45 44 46 46 46 39 33 33 31 28 25 24 24 23 21 22 23 25 27 29 29 29 28 28 29 30 32 33 34 33 32 32 32 33 32 30 29 31 34 37 38 37 34 32 33 34 34 32 28 26 28 27 24 24 25 20 17 17 17 19 20 22 23 24 24
31 32 33 33 32 31 32 32 30 29 31 31 28 26 24 23 23 22 22 22 22 23 26 30 36 41 42 45 47 44 48 50 45 45 45 45 43 35 31 31 30 28 26 25 25 24 22 22 22 23 27 29 30 28 29 29 29 30 33 33 34 33 32 33 34 34 33 31 30 31 33 36 38 37 34 31 28 28 27 26 25 27 28 26 24 22 21 19 18 17 19 21 22 23 23 23 23
31 31 31 32 32 31 31 31 31 29 29 31 30 27 25 24 23 23 23 22 23 23 24 27 32 36 41 47 47 45 47 48 46 44 45 44 40 32 30 30 29 28 27 26 26 25 23 22 21 22 26 30 30 29 29 30 29 31 33 32 33 33 33 34 35 35 34 32 30 30 33 35 37 37 32 27 24 23 24 23 25 28 28 26 24 23 22 21 18 18 21 23 24 24 24 24 23
31 31 31 31 32 31 30 30 31 29 29 29 30 30 27 25 24 24 23 23 23 23 25 26 30 31 36 43 43 44 43 44 46 45 45 42 36 31 31 30 28 27 27 27 28 27 25 23 22 22 24 28 29 28 29 30 30 32 31 31 33 33 33 35 35 36 35 32 31 30 31 34 35 34 28 23 20 21 23 23 25 27 28 27 25 23 24 23 20 20 23 25 25 25 25 26 26
31 31 31 31 32 32 31 29 29 29 29 28 29 31 30 27 26 25 24 23 23 23 24 23 28 28 32 39 40 42 41 41 44 44 44 40 35 33 31 31 29 28 26 26 27 28 26 24 24 23 22 26 27 26 28 29 30 31 30 31 34 33 33 35 35 36 36 33 31 29 29 30 31 30 25 21 20 21 22 23 24 26 27 28 26 24 24 26 25 24 26 27 27 27 27 28 30
31 32 32 32 32 30 31 29 28 28 28 28 29 30 32 31 29 28 26 26 25 24 24 23 26 28 33 41 40 41 40 40 41 42 45 41 36 35 33 34 32 30 28 26 26 27 27 25 25 25 22 23 24 25 27 29 30 31 31 32 33 33 33 34 35 37 37 33 30 27 25 26 27 27 24 20 19 20 22 22 22 24 26 28 27 25 25 28 30 30 30 29 28 29 30 32 33
30 32 32 33 33 30 29 28 28 27 26 27 28 29 31 33 31 29 28 29 27 24 24 26 29 32 37 43 42 42 41 40 40 44 47 42 39 38 38 37 35 32 29 25 23 25 26 25 26 26 24 23 22 24 27 28 29 31 31 32 32 32 32 34 35 36 36 32 29 24 22 22 24 25 23 20 19 20 21 22 21 23 26 27 27 25 26 29 33 34 34 31 30 31 33 34 34
29 30 30 31 33 31 29 28 27 26 25 25 26 27 28 31 32 31 31 30 28 25 25 29 33 37 42 45 45 44 42 42 42 47 47 42 42 42 40 39 36 31 28 24 22 23 23 24 25 26 27 24 21 23 26 28 30 31 31 32 31 31 33 34 34 36 35 30 26 21 19 21 23 25 24 21 20 20 21 22 21 22 24 26 27 26 26 29 34 37 36 35 33 33 35 35 36
28 29 29 29 31 30 28 27 27 26 25 25 24 25 25 27 30 32 32 30 29 26 26 29 31 35 41 44 46 43 41 42 43 48 47 43 43 43 41 39 36 31 27 24 24 22 21 22 25 26 28 26 23 23 26 30 32 32 32 32 31 32 33 34 35 35 32 27 23 19 17 19 23 25 25 22 20 21 21 23 22 21 23 24 26 27 27 28 33 37 37 36 35 35 35 36 36
29 28 28 28 29 29 28 27 26 27 25 24 24 23 24 24 26 29 31 31 30 28 28 30 31 34 40 43 43 41 40 41 43 47 47 44 43 42 41 38 36 31 27 25 25 23 20 21 23 26 29 29 26 24 28 33 34 33 33 32 31 33 34 34 34 33 30 25 22 19 17 19 23 26 27 23 21 21 21 23 23 22 22 24 25 27 28 27 31 35 37 36 35 36 37 38 36
28 28 28 28 29 28 28 27 27 27 26 24 24 23 23 24 24 25 28 29 31 32 31 33 32 32 38 42 42 40 39 39 42 45 45 43 41 40 39 37 34 30 27 26 24 22 21 21 22 25 29 30 27 25 31 34 32 32 33 32 32 34 35 35 35 32 28 24 23 20 18 20 23 27 28 26 23 22 22 23 25 25 24 24 25 27 28 27 28 32 36 36 35 37 39 39 37
27 27 28 29 29 28 28 28 27 26 26 25 24 24 23 24 25 25 25 27 32 34 33 35 33 30 33 36 37 37 36 37 40 43 42 41 39 38 37 35 32 29 27 26 23 22 22 22 21 23 28 29 25 28 35 34 31 32 31 31 33 35 35 36 34 31 28 25 24 22 20 21 25 28 29 27 25 24 24 24 26 27 27 26 26 28 28 27 27 29 33 35 35 36 38 38 37
26 27 28 28 29 28 28 28 28 27 27 25 25 25 23 24 24 26 28 27 33 36 34 37 35 33 35 34 32 32 35 36 39 41 40 39 38 38 36 33 30 28 26 24 22 22 22 21 20 21 26 27 24 29 35 33 31 31 31 32 34 35 36 36 34 30 28 27 25 22 21 23 26 29 30 30 28 27 26 25 25 27 28 28 28 28 28 28 28 29 30 32 34 34 35 34 34
27 27 28 28 27 27 26 26 28 27 26 24 24 24 22 23 23 27 31 29 34 38 36 36 36 36 36 35 32 32 36 37 39 41 39 39 38 37 34 32 29 27 26 23 22 24 24 24 24 22 23 26 24 27 33 33 32 31 31 33 34 35 36 36 33 30 29 29 27 24 23 25 27 30 31 32 31 30 29 28 27 26 27 28 29 30 29 28 29 30 29 29 29 29 29 29 30
27 27 28 26 25 25 24 25 26 25 24 23 22 22 22 23 23 27 32 35 39 41 40 36 35 35 34 33 33 34 36 37 40 40 39 39 38 36 34 33 30 27 25 23 22 25 26 24 27 26 24 26 26 29 32 34 32 32 34 35 34 35 35 34 32 31 32 32 31 28 26 27 29 31 35 37 36 34 33 32 30 29 27 27 28 31 31 28 29 30 29 27 26 26 26 26 27
26 27 27 24 23 24 23 24 24 23 23 22 21 21 22 23 24 26 29 36 41 40 43 41 38 38 35 34 34 36 37 39 41 40 39 39 38 38 37 36 33 30 27 24 22 26 26 24 31 32 26 25 29 34 38 38 38 38 40 37 33 34 34 32 31 33 35 35 34 32 30 30 33 37 43 45 43 41 39 36 34 34 31 29 27 30 32 31 30 31 30 28 26 25 25 25 25
26 26 25 21 22 23 23 24 24 23 23 22 22 21 22 22 24 26 25 32 38 36 40 41 41 41 39 37 36 38 39 40 41 41 41 40 40 40 40 38 35 32 28 24 22 27 28 29 38 36 27 27 33 41 44 46 46 46 46 39 35 34 32 30 32 36 37 35 33 34 34 35 39 45 49 50 47 45 43 40 39 39 37 35 32 30 31 32 33 33 32 30 29 28 27 26 26
24 24 21 19 21 23 23 24 24 23 23 22 22 21 22 21 21 24 24 28 32 32 32 30 33 36 38 40 39 40 40 41 41 42 42 41 42 40 38 36 34 32 27 22 21 27 34 37 41 35 28 34 41 46 47 48 50 51 50 44 40 37 31 30 35 39 38 35 36 37 37 41 46 50 53 51 48 45 44 43 42 41 41 41 39 36 34 34 34 35 34 32 32 32 32 31 30
22 21 19 19 20 22 22 23 24 23 23 23 23 22 21 23 24 24 24 23 23 26 25 23 26 27 32 37 39 40 40 40 41 42 42 40 40 37 35 33 31 30 25 21 21 29 38 39 40 36 32 39 47 50 50 52 54 53 51 49 47 40 33 34 38 39 38 39 40 41 43 46 50 52 54 53 48 45 44 44 43 42 43 45 45 43 42 41 40 39 37 35 36 37 37 36 37
19 18 19 19 19 20 21 22 23 23 23 23 23 22 23 27 30 29 25 22 21 23 22 22 26 26 29 34 36 39 39 40 41 41 41 39 37 34 32 30 28 28 25 23 22 28 38 39 39 39 36 42 49 51 53 56 56 54 53 54 52 45 37 38 40 37 39 44 43 44 47 50 53 55 55 53 50 46 45 44 43 44 44 46 48 47 46 46 46 45 44 43 43 43 43 44 43
16 16 17 18 18 19 19 21 22 22 22 22 22 21 25 27 28 33 31 25 23 23 23 24 27 30 33 34 36 37 38 40 41 40 40 38 36 33 30 28 26 25 24 24 23 26 33 36 37 39 40 46 51 53 56 59 59 56 55 57 54 48 43 43 42 36 38 45 45 46 50 54 57 57 55 52 50 46 44 43 44 46 45 47 49 48 47 47 47 46 45 46 47 48 48 47 46
16 15 16 17 17 18 18 19 21 21 21 22 22 21 22 22 25 36 36 27 25 27 27 27 30 34 35 36 38 38 39 39 39 39 39 38 35 31 28 27 25 25 27 30 30 27 27 30 34 39 44 49 53 56 60 62 62 59 58 60 56 50 48 47 44 39 39 45 48 49 53 57 59 58 55 51 49 48 46 46 48 46 46 46 47 47 47 47 46 45 45 46 47 47 47 47 46
15 14 15 16 16 17 17 18 19 20 21 20 21 20 20 23 27 35 38 31 29 31 31 31 34 36 37 40 39 37 38 39 39 40 39 37 33 30 27 27 27 28 31 35 35 32 28 29 34 42 47 50 56 60 64 67 64 61 61 62 58 53 53 50 47 43 42 46 50 51 56 61 60 59 57 53 53 54 55 54 51 47 45 43 42 43 44 46 48 47 46 45 45 46 46 46 45
14 15 15 15 15 16 16 17 17 18 19 19 19 19 23 29 27 29 37 35 32 33 35 37 38 39 42 44 41 38 38 38 39 39 37 35 32 29 27 28 29 31 34 37 38 38 33 32 38 46 48 50 58 65 68 69 65 64 64 63 62 60 58 54 50 46 44 48 50 53 59 62 61 59 57 57 59 60 62 60 55 49 45 41 40 41 42 45 48 47 45 45 45 45 43 41 38
15 14 15 15 14 15 15 15 16 16 17 17 18 19 26 32 25 23 31 34 34 33 38 41 40 42 45 46 42 40 39 38 38 37 36 34 33 30 29 31 32 34 35 37 40 41 39 38 41 46 48 51 61 69 70 69 66 66 66 64 65 63 60 58 53 48 48 51 53 58 63 63 63 61 56 57 60 60 62 61 59 54 46 41 41 41 44 47 48 48 47 44 42 40 37 34 33
16 15 15 14 14 14 13 13 14 14 15 15 17 18 21 25 23 25 30 33 36 34 38 41 40 43 46 43 42 41 40 39 38 36 35 34 32 30 30 33 34 34 36 36 39 42 43 42 43 45 47 52 63 69 70 70 68 68 67 66 64 63 63 63 58 53 53 56 60 65 65 64 64 62 58 59 60 60 62 62 61 55 47 43 43 45 47 48 46 45 42 39 35 34 33 32 31
17 16 15 14 14 13 12 12 12 13 13 13 14 14 14 17 23 29 32 34 35 34 35 37 39 44 44 41 40 40 39 39 37 35 35 33 32 31 32 34 35 35 36 35 37 42 46 46 46 47 49 56 64 69 71 71 69 69 69 68 66 67 68 65 60 57 58 63 68 69 66 65 65 63 61 61 62 62 63 62 59 53 47 45 47 47 46 42 39 37 34 32 31 31 31 31 31
18 18 17 15 14 13 11 11 11 11 11 11 12 11 10 14 24 31 32 32 31 30 33 34 37 42 42 39 38 38 38 38 37 35 34 33 32 32 33 34 36 36 36 35 38 44 48 48 49 49 52 61 68 69 71 71 69 70 71 71 69 69 66 61 61 61 65 71 72 69 66 65 65 65 62 61 61 62 63 61 56 53 50 46 45 42 38 35 34 32 31 31 31 31 31 32 32
19 19 19 16 15 14 13 12 11 10 10 10 10 11 11 12 22 29 29 31 30 28 30 32 34 39 41 39 37 37 37 38 37 35 34 33 33 33 33 34 36 36 36 36 39 45 50 51 51 51 56 66 71 68 67 68 68 69 71 71 69 66 62 62 65 67 72 74 70 66 66 66 67 65 61 60 59 58 57 54 51 51 47 42 38 36 34 33 32 31 32 32 32 33 33 33 33
20 19 19 17 15 15 14 13 12 10 10 10 9 11 13 12 20 29 28 29 29 28 30 31 32 36 40 39 37 36 37 37 36 35 34 34 34 34 34 34 36 37 38 36 39 46 51 53 52 53 57 65 68 63 62 66 66 67 69 70 68 65 64 67 70 72 76 74 67 66 67 68 68 65 63 61 58 54 52 50 49 47 43 39 36 35 34 33 32 32 33 33 33 33 32 32 33
20 18 18 17 17 16 15 14 14 12 11 10 9 10 15 18 22 28 29 28 28 27 29 31 32 35 38 39 38 36 36 37 35 35 35 35 34 34 34 36 37 38 40 38 40 46 52 56 56 57 59 60 60 59 63 67 66 66 69 70 69 68 68 72 73 75 77 74 69 67 68 68 67 64 63 61 57 53 51 50 48 45 42 39 37 36 35 34 34 33 33 33 33 32 31 31 31
19 18 19 19 18 18 16 15 15 14 12 11 10 9 16 25 25 26 29 28 27 28 28 30 32 34 36 38 37 36 36 36 36 36 36 36 36 35 35 37 40 42 42 42 43 48 53 57 60 62 62 60 60 63 68 71 70 69 70 72 71 70 70 73 75 77 78 75 71 68 68 68 66 63 63 62 57 53 52 50 47 46 43 39 37 36 36 35 35 34 33 32 31 30 29 28 28
19 19 21 20 19 18 16 15 15 16 14 13 12 10 14 25 25 24 29 30 27 28 29 30 32 33 36 37 37 36 35 36 37 36 36 37 37 35 36 40 45 46 45 44 46 51 56 59 62 66 67 68 68 69 71 76 76 74 72 72 71 71 74 77 78 79 79 78 74 69 67 68 67 66 67 64 57 53 54 52 49 47 43 40 39 38 37 36 35 34 32 29 28 27 28 27 28
22 22 22 21 19 18 16 15 14 15 16 14 13 12 14 23 25 24 28 31 29 28 29 29 31 33 35 37 37 36 36 37 37 36 35 36 37 37 39 44 48 48 46 46 49 55 61 63 65 70 74 76 76 74 76 80 78 74 73 73 74 77 80 81 80 79 79 79 75 70 67 68 69 69 67 61 55 55 56 55 51 46 42 41 41 39 38 36 34 31 28 27 27 27 28 28 28
24 23 22 22 20 18 16 15 14 15 15 16 16 14 16 23 25 24 27 30 30 29 29 29 30 32 35 37 36 35 36 37 36 35 35 35 36 38 41 45 49 48 46 49 55 59 63 65 67 74 80 81 80 79 80 81 76 72 73 76 79 84 84 83 81 78 77 78 76 71 70 72 69 65 62 60 58 58 57 56 51 44 41 41 40 39 36 32 30 27 27 27 28 28 28 28 28
27 24 24 24 21 19 18 14 16 15 14 19 20 16 18 25 26 25 26 27 28 29 29 29 30 31 34 36 35 36 36 36 35 34 34 34 36 38 42 45 48 48 47 52 62 65 67 69 68 74 84 84 79 78 80 78 73 72 77 81 82 86 87 84 81 78 75 76 76 73 74 74 67 60 59 59 59 58 57 54 49 44 42 41 39 36 31 28 27 27 27 28 28 29 28 27 26
28 26 25 25 22 20 17 17 22 22 19 23 22 19 24 29 28 27 26 26 27 29 30 29 31 31 33 36 35 36 36 35 35 34 34 35 36 39 42 45 47 48 49 54 65 71 71 70 68 72 83 86 81 79 80 76 72 75 80 83 82 84 85 82 80 78 75 77 78 75 76 74 65 61 60 58 58 58 55 52 48 45 42 39 35 30 28 27 27 28 28 28 27 27 27 26 25
29 28 27 25 23 20 18 22 27 26 26 25 22 24 29 30 30 29 28 29 28 28 29 29 30 32 33 35 35 35 35 35 35 35 35 37 38 40 44 46 47 48 51 57 65 70 69 68 72 79 83 85 83 81 79 76 74 79 83 83 82 82 82 80 80 80 79 80 79 76 76 72 66 64 61 59 58 56 52 50 47 44 39 34 31 28 28 29 29 29 28 28 27 26 25 24 23
30 29 27 26 24 21 23 27 24 23 27 26 22 24 28 29 30 30 31 32 30 28 29 29 30 32 34 35 35 35 36 36 36 36 38 40 41 44 47 48 48 49 55 63 66 67 69 70 77 84 82 81 82 80 77 76 78 82 84 82 82 81 81 82 81 83 83 82 79 77 75 72 69 66 62 59 57 53 51 49 45 40 34 31 30 29 30 30 30 29 27 27 25 24 23 22 22
30 29 27 26 25 24 28 27 21 21 26 27 23 20 28 35 30 28 31 32 32 31 30 30 31 33 34 34 35 34 34 35 36 37 40 41 42 44 46 47 48 50 58 67 69 67 71 74 76 79 78 77 79 78 76 78 82 84 82 80 83 82 81 82 83 82 83 81 79 77 75 73 68 63 61 59 56 53 50 46 40 35 32 31 31 31 31 30 29 28 26 25 23 23 23 23 23
28 28 27 27 26 25 28 27 23 25 26 31 30 21 28 39 31 26 30 30 32 33 31 31 31 33 34 34 34 33 33 34 34 36 38 40 40 42 44 46 48 52 59 68 69 66 70 74 75 75 75 76 77 76 76 80 83 84 82 82 86 86 83 82 81 80 80 81 79 76 74 73 67 62 61 59 54 50 46 40 35 33 32 31 31 31 30 29 26 25 24 23 23 23 23 23 24
27 29 29 29 29 26 27 28 29 32 30 32 37 26 22 33 32 27 29 28 30 31 30 29 30 33 33 33 33 32 31 32 33 35 36 38 39 41 44 46 49 53 60 68 67 65 69 71 74 75 75 76 75 74 76 80 82 83 85 87 88 88 85 83 81 79 79 79 78 76 73 72 68 64 60 55 50 46 41 36 34 32 32 32 31 30 27 25 24 24 24 24 24 24 24 24 24
27 29 32 31 30 28 29 28 30 40 39 31 35 31 20 27 34 31 32 32 27 27 27 26 26 29 30 30 31 31 31 32 33 35 36 38 39 42 45 48 51 54 62 69 67 66 68 69 72 75 74 72 72 74 77 80 83 83 86 88 87 86 85 84 82 80 78 77 77 75 73 69 65 62 58 52 47 42 37 35 33 32 32 32 30 27 25 24 24 25 25 25 25 24 24 24 24
29 30 32 33 32 31 31 28 28 40 43 33 33 33 23 24 30 31 32 30 24 24 26 25 24 25 26 28 29 31 32 32 33 35 37 38 40 43 45 49 53 56 61 66 67 68 67 67 70 72 72 71 72 75 76 79 83 83 85 88 85 83 84 84 83 81 78 77 77 74 73 69 63 59 54 47 42 38 36 35 34 34 33 30 26 25 25 25 25 26 26 26 25 25 25 24 24
31 29 31 34 34 33 33 32 30 32 33 30 32 36 31 25 24 26 27 25 22 24 25 24 24 24 25 27 28 30 32 32 33 35 36 38 40 42 43 48 54 56 59 64 67 69 66 65 68 69 71 72 72 73 74 76 79 80 84 88 86 83 83 83 83 82 80 79 77 72 70 68 61 55 50 43 40 39 37 36 35 33 30 27 26 26 26 26 27 27 26 26 25 25 25 25 23
32 29 32 35 35 35 35 33 31 27 26 28 30 36 40 33 25 25 25 24 23 23 23 23 23 24 25 27 28 31 33 33 34 35 36 38 40 42 43 48 53 56 59 63 66 66 64 65 66 67 70 70 70 73 74 76 79 81 85 87 86 84 83 84 84 84 83 80 75 71 70 67 58 50 45 41 40 40 38 35 32 29 27 26 27 27 27 28 27 27 26 26 26 26 25 23 22
31 30 30 33 34 37 37 33 29 26 27 31 31 33 39 35 27 24 24 24 23 22 23 23 23 25 26 27 30 32 34 34 34 35 36 37 40 42 43 48 53 55 58 61 63 63 63 65 66 68 69 68 69 73 75 78 81 84 86 84 83 83 83 84 84 83 80 77 74 73 72 65 54 47 43 39 40 39 35 32 29 28 28 28 28 28 28 28 27 27 27 27 26 26 24 23 21
30 29 29 31 32 33 34 31 29 32 37 41 41 36 31 28 25 24 22 23 24 23 24 24 24 26 27 28 31 33 35 34 34 36 36 37 40 42 43 48 53 54 56 59 62 62 63 67 68 69 69 66 69 75 77 80 82 83 85 84 82 83 83 83 83 82 80 77 76 74 67 58 50 45 40 37 38 36 32 31 30 29 29 28 28 28 27 27 27 27 27 27 27 25 23 22 21
33 31 30 31 30 30 32 31 31 39 42 47 48 39 29 26 27 27 24 24 25 25 25 25 25 26 27 29 31 33 34 34 35 36 37 38 40 42 45 49 53 54 55 59 62 62 63 68 71 72 72 69 70 76 78 80 83 82 81 81 82 84 83 83 83 83 82 79 75 68 60 54 47 40 36 35 36 35 33 32 30 29 29 28 27 27 27 28 28 28 28 27 26 24 23 21 21
34 32 30 29 29 31 33 33 35 38 35 39 45 39 32 30 29 31 28 24 26 27 26 26 25 26 27 29 32 32 33 34 35 36 37 38 40 43 46 50 53 54 56 59 62 63 63 68 71 72 74 72 74 79 80 80 82 83 80 79 81 84 83 81 82 82 81 76 69 61 55 50 43 36 36 37 37 35 32 30 29 29 28 27 27 27 28 28 28 28 28 26 25 24 23 22 23
34 32 29 29 30 31 33 34 37 35 30 35 42 39 36 30 27 33 32 25 26 27 26 26 26 27 28 30 32 32 33 34 36 36 38 40 41 45 48 51 54 55 57 61 63 63 63 67 70 71 72 73 76 82 83 84 86 85 82 80 81 83 82 80 81 81 76 69 62 56 52 49 44 41 39 38 35 31 29 28 29 30 28 27 27 28 28 28 28 28 26 26 25 24 24 24 24
34 32 29 29 31 31 32 35 37 35 30 34 39 41 39 29 24 31 31 26 27 27 27 27 26 27 28 29 32 32 33 35 35 36 39 40 44 48 50 51 54 56 58 62 64 63 65 67 70 71 72 75 79 80 80 84 88 85 82 82 81 80 79 80 81 77 69 64 61 57 55 54 51 45 39 35 31 28 29 29 31 30 29 29 29 28 29 28 28 27 26 25 24 24 25 24 21
36 33 30 30 30 29 31 33 34 35 32 31 34 38 37 29 24 26 26 25 26 27 28 28 27 28 28 29 31 32 32 34 35 37 39 41 45 50 52 52 54 57 59 63 64 65 67 69 69 70 71 74 78 79 77 80 83 81 80 82 81 78 78 78 77 71 68 67 65 62 60 58 54 43 35 32 30 29 30 30 31 31 30 29 29 29 29 28 27 26 25 25 24 25 24 21 18
36 33 31 30 30 29 29 30 30 32 32 32 32 32 31 27 24 22 22 24 25 26 29 28 26 27 28 29 32 32 33 34 36 38 41 43 45 50 52 53 56 58 60 63 65 65 67 69 70 70 69 69 72 76 78 78 77 76 78 81 80 79 77 76 73 72 72 71 67 63 60 58 51 41 33 31 31 31 31 31 31 31 30 30 30 30 29 28 27 26 24 24 25 25 23 19 17
34 32 30 30 29 28 27 28 28 28 31 35 34 29 26 26 25 22 20 22 24 26 28 28 27 27 27 30 32 32 34 35 37 39 43 44 45 50 53 55 56 57 60 63 64 64 67 70 71 70 69 67 67 69 72 74 73 74 77 80 80 79 78 76 75 75 75 71 67 63 60 56 49 39 33 32 32 32 31 31 31 30 29 30 30 30 30 28 27 24 23 24 26 24 21 19 18